This is the latest recevied weather packets stored in our database for station/object EA3HRE-13. If no packets are shown the sender has not sent any weather packets the latest 10 day(s).
| Time | Temp. | Humidity | Pressure | Rain* | Wind** | Luminosity | Snow |
|---|---|---|---|---|---|---|---|
| 1787991371 | 24.44° C | 100% | 2147.9 hPa | 0 mm | - | - | - |
| 1787990770 | 23.89° C | 100% | 2118.3 hPa | 0 mm | - | - | - |
| 1787990170 | 23.33° C | 100% | 2117.2 hPa | 0 mm | - | - | - |
| 1787989541 | 22.78° C | 100% | 2117.2 hPa | 0 mm | - | - | - |
| 1787988940 | 22.22° C | 100% | 2117.2 hPa | 0 mm | - | - | - |
| 1787988340 | 21.67° C | 100% | 2117.5 hPa | 0 mm | - | - | - |
| 1787987740 | 21.11° C | 100% | 1007.8 hPa | 0 mm | - | - | - |
| 1787987136 | 21.11° C | 100% | 1007.7 hPa | 0 mm | - | - | - |
| 1787986536 | 20.56° C | 100% | 1007.7 hPa | 0 mm | - | - | - |
| 1787985936 | 20° C | 100% | 1007.7 hPa | 0 mm | - | - | - |
| 1787985336 | 19.44° C | 100% | 1007.6 hPa | 0 mm | - | - | - |
| 1787984735 | 18.89° C | 100% | 1007.5 hPa | 0 mm | - | - | - |
| 1787984135 | 18.89° C | 100% | 1007.5 hPa | 0 mm | - | - | - |
| 1787983535 | 18.33° C | 100% | 1007.6 hPa | 0 mm | - | - | - |
| 1787982935 | 18.33° C | 100% | 1007.7 hPa | 0 mm | - | - | - |
| 1787982335 | 18.33° C | 100% | 1007.6 hPa | 0 mm | - | - | - |
| 1787981705 | 18.89° C | 100% | 1007.6 hPa | 0 mm | - | - | - |
| 1787981105 | 18.89° C | 100% | 1007.5 hPa | 0 mm | - | - | - |
| 1787980505 | 19.44° C | 100% | 1007.2 hPa | 0 mm | - | - | - |
| 1787979905 | 18.89° C | 100% | 1007.3 hPa | 0 mm | - | - | - |
| 1787979305 | 19.44° C | 100% | 1007 hPa | 0 mm | - | - | - |
| 1787978705 | 18.89° C | 100% | 1006.9 hPa | 0 mm | - | - | - |
| 1787978075 | 19.44° C | 100% | 1007 hPa | 0 mm | - | - | - |
| 1787977474 | 19.44° C | 100% | 1006.9 hPa | 0 mm | - | - | - |
| 1787976874 | 19.44° C | 100% | 1006.8 hPa | 0 mm | - | - | - |
* Rain latest hour (hover to see other rain measurements)
** Current wind speed in m/s (hover to see current wind gust speed)